Tracking 29042 objects as of 20-Jun-2024
HD Live streaming from Space Station
objects crossing your sky now

KYOKKO 1 (EXOS A)

Track KYOKKO 1 (EXOS A) now!
10-day predictions
KYOKKO 1 (EXOS A) is classified as:


NORAD ID: 10664
Int'l Code: 1978-014A
Perigee: 644.9 km
Apogee: 3,950.0 km
Inclination: 65.4 °
Period: 133.9 minutes
Semi major axis: 8668 km
RCS: 1.0778 m2 (large)
Launch date: February 4, 1978
Source: Japan (JPN)
Launch site: KAGOSHIMA SPACE CENTER UNIVERSITY OF TOKYO (KSCUT)
Your satellite tracking list
Your tracking list is empty




NASA's NSSDC Master Catalog

Two Line Element Set (TLE):
1 10664U 78014A   24171.83083502  .00000153  00000-0  23140-3 0  9993
2 10664  65.3714 316.8893 1906430 191.7296 163.2403 10.75700621804528
Source of the keplerian elements: AFSPC